Regional Weather Roundup
Issued by NWS

Home | Current Version | Previous Version | Graphics & Text | Print | Product List | Glossary On
Versions: 1 2 3 4 5 6 7 8 9 10 11 12 13 14 15 16 17 18 19 20 21 22 23 24 25 26 27 28 29 30 31 32 33 34 35 36 37 38 39 40 41 42 43 44 45 46 47 48 49 50
000
ASUS43 KOAX 172002
RWRNE

WEATHER ROUNDUP FOR NEBRASKA
NATIONAL WEATHER SERVICE OMAHA NE
200 PM CST WED DEC 17 2014

NOTES: SATELLITE DATA IS BEING USED TO AUGMENT CLOUD COVER ABOVE
       12000 FEET.
       "FAIR" INDICATES FEW OR NO CLOUDS BELOW 12,000 FEET WITH NO
       SIGNIFICANT WEATHER AND/OR OBSTRUCTIONS TO VISIBILITY.

  * THESE STATIONS DO NOT REPORT WEATHER SUCH AS RAIN...SNOW OR FOG.

NEZ001>004-019>022-054>056-172100-
NEBRASKA PANHANDLE

CITY           SKY/WX    TMP DP  RH WIND       PRES   REMARKS
SCOTTSBLUFF    MOSUNNY   22  19  89 E10       29.95F WCI  11
ALLIANCE       CLOUDY    24  21  88 S14       29.96F WCI  12
CHADRON        MOSUNNY   28  19  69 CALM      29.97F
SIDNEY         FOG       22  19  89 S10       29.97F VSB 3/4 WCI  11
$$

NEZ057>060-069>072-079>082-172100-
SOUTHWEST NEBRASKA

CITY           SKY/WX    TMP DP  RH WIND       PRES   REMARKS
NORTH PLATTE   CLOUDY    22  20  92 SE7       30.10F WCI  13
IMPERIAL       CLOUDY    23  20  88 S7        30.05F WCI  15
MCCOOK         CLOUDY    23  21  92 E9        30.11F FOG     WCI  13
$$

NEZ005>010-023>029-035>040-094-172100-
NORTH CENTRAL NEBRASKA

CITY           SKY/WX    TMP DP  RH WIND       PRES   REMARKS
VALENTINE      CLOUDY    22  19  89 S13       30.10F WCI  10
BROKEN BOW     CLOUDY    22  21  96 S9        30.14F FOG     WCI  12
ORD            CLOUDY    21  18  88 S5        30.18F WCI  15
$$

NEZ041-046>049-061>064-073>077-083>087-172100-
SOUTH CENTRAL NEBRASKA

CITY           SKY/WX    TMP DP  RH WIND       PRES   REMARKS
GRAND ISLAND   CLOUDY    24  19  81 SE6       30.20F WCI  17
HASTINGS       CLOUDY    24  18  77 SE9       30.18F WCI  14
HEBRON         MOSUNNY   77  64  65 NE12      30.18F
KEARNEY *      CLOUDY    25  19  80 E6        30.17F WCI  18
$$

NEZ011>018-030>034-042>045-172100-
NORTHEAST NEBRASKA

CITY           SKY/WX    TMP DP  RH WIND       PRES   REMARKS
NORFOLK        SUNNY     25  14  63 S6        30.23F WCI  18
BLAIR          MOSUNNY   28  17  62 SE6       30.27S WCI  21
COLUMBUS *     CLOUDY    25  12  58 E5        30.26F WCI  19
TEKAMAH        MOSUNNY   25  14  63 CALM      30.29F
$$

NEZ050>053-065>068-078-088>093-172100-
SOUTHEAST NEBRASKA

CITY           SKY/WX    TMP DP  RH WIND       PRES   REMARKS
LINCOLN        CLOUDY    26  15  63 NE6       30.27F WCI  19
OMAHA EPPLEY   PTSUNNY   27  15  61 CALM      30.30F
FALLS CITY     CLOUDY    28  18  66 N3        30.27F
$$

NEZ044-045-051>053-067-172100-
OMAHA AREA

CITY           SKY/WX    TMP DP  RH WIND       PRES   REMARKS
OMAHA EPPLEY   PTSUNNY   27  15  61 CALM      30.30F
BLAIR          MOSUNNY   28  17  62 SE6       30.27S WCI  21
OFFUTT AFB     PTSUNNY   26  15  63 CALM      30.28F
$$


USA.gov is the U.S. government's official web portal to all federal, state and local government web resources and services.